User: anonymous   Login
Location: Heilwood
(40.6210°N, 78.9150°W)
Time: 22:08:50
(UTC-05:00)
Language:

BREEZE-M DEB (TANK) - Orbit

View from above orbital plane
View from above orbital plane
View from above satellite
View from above satellite

Ground track
Ground track

The orbit data is extracted from the following two-line orbital elements,

1 29649U 06056B   14326.11244972  .00003138  00000-0  49160-3 0   576
2 29649 049.4661 196.6016 5412099 298.4664 211.8146 04.95424494141059
Epoch (UTC): 22 November 2014 02:41:55
Eccentricity: 0.5412099
inclination: 49.4661°
perigee height: 290 km
apogee height: 16023 km
right ascension of ascending node: 196.6016°
argument of perigee: 298.4664°
revolutions per day: 4.95424494
mean anomaly at epoch: 211.8146°
orbit number at epoch: 14105

The dashed part of the orbit path shows where the satellite is in the earth's shadow,  

DLR